KUIPER-00065

导读

KUIPER-00065是美国亚马逊柯伊伯(Kuiper)星座计划中的一颗低轨通信卫星,于2025年6月23日发射升空。该星座计划部署超3200颗卫星,分布在近地轨道,旨在为全球尤其是欠发达地区提供高速低延迟的卫星宽带服务。作为星座组网进程中的一颗卫星,KUIPER-00065将助力推进全球宽带覆盖目标,依托先进技术提升网络服务效率,推动全球互联基础设施建设。

Basic Information
目录编号:
64525
目录名称:
KUIPER-00065
国际标识:
2025-134AB
轨道中心:
EARTH
卫星名称:
KUIPER-00065
卫星全名:
KUIPER-00065
卫星状态:
在轨 (已飞行445 天)
发射日期:
2025-06-23 UTC
国别 :
美国 (US)
星等 :
--
Orbit Information
数据来源 国际轨道数据 AOE轨道数据
星历时间 2026-09-10T17:12:43+0800
20小时前
查看轨道信息
2026-09-10T05:00:00+0800
1天前
查看轨道信息
半长轴 7007.665km 7007.688km
偏心率 0.0000726 0.0000036
轨道倾角 51.904° 51.905°
近地点辐角 102.485° 225.264°
升交点赤经 144.028° 146.277°
平近点角 257.619° 302.276°
近地点 629.019km 629.525km
远地点 630.037km 629.577km
周期 97.302分钟 97.302分钟
每日圈数 14.799356 14.799283
Detailed Information
使用方式:
暂无
2D Orbit Map
3D Orbit Map
Orbit Altitude Analysis Chart
Orbit Inclination Analysis Chart
Orbit Comprehensive Analysis Chart
View Comprehensive Chart
Conjunction Data List
Event ID Objects TCA Miss Dist (km) Collision Risk Probability Collision Risk Index (CRI) Action
CDM_260904-011104-807906-452525
2026-09-04T
01:11:33+0000
0.694 km
远距离
6.694746E-5 中风险 0.72
Miss Distance Evolution Trend with All Objects
Collision Probability Evolution Trend with All Objects